Regional Weather Roundup
Issued by NWS

Home | Current Version | Previous Version | Text Only | Print | Product List | Glossary Off
Versions: 1 2 3 4 5 6 7 8 9 10 11 12 13 14 15 16 17 18 19 20 21 22 23 24 25 26 27 28 29 30 31 32 33 34 35 36 37 38 39 40 41 42 43 44 45 46 47 48 49 50

000
ASUS45 KABQ 231701
RWRNM
NEW MEXICO REGIONAL WEATHER ROUNDUP
NATIONAL WEATHER SERVICE ALBUQUERQUE NM
1000 AM MST THU FEB 23 2017

NOTE: "FAIR" MEANS FEW OR NO CLOUDS BELOW 12,000 FEET AGL WITH NO
       SIGNIFICANT WEATHER OR OBSTRUCTIONS TO VISION.

      THIS PRODUCT IS RELEASED AS TWO VERSIONS.  ONE VERSION NEAR
      THE TOP OF THE HOUR CONTAINING PRELIMINARY DATA FROM ALBUQUERQUE
      AND OTHER STATIONS.  A FINAL VERSION WITH ADDITIONAL DATA IS
      ISSUED ABOUT 10 MINUTES AFTER THE HOUR.

NMZ501-503-504-510>518-231800-
NORTHWEST PLATEAU/NORTHCENTRAL MOUNTAINS

CITY           SKY/WX    TMP DP  RH WIND       PRES   REMARKS
FARMINGTON     PTSUNNY   38  12  34 W20G28    29.74R WCI  28
LOS ALAMOS     FAIR      38  20  48 W25G31    29.71R WCI  26
SANTA FE       FAIR      47  18  31 W24G33    29.69R
TAOS             N/A     36  18  48 W26G32    29.67R WCI  23
ANGEL FIRE     FLURRIES  31  21  65 W24G36    29.63R WCI  18

$$
NMZ402-403-502-505>509-231800-
WESTCENTRAL MOUNTAINS/SOUTHWEST MOUNTAINS

CITY           SKY/WX    TMP DP  RH WIND       PRES   REMARKS
GALLUP         FAIR      37  17  44 W22G30    29.80F WCI  26
GRANTS         FAIR      40  12  31 W29G40    29.77S WCI  29
SILVER CITY    FAIR      52  30  43 W15G29    29.87S

$$
NMZ407-409-411-412-231800-
SOUTHERN DESERTS

CITY           SKY/WX    TMP DP  RH WIND       PRES   REMARKS
DEMING         FAIR      61  34  36 W21G29    29.85S
LAS CRUCES     FAIR      61  37  40 W35G44    29.79R
ALAMOGORDO     FAIR      63  34  34 NW8       29.81S
T OR C         FAIR      60  21  22 SW22G31   29.76S

$$
NMZ519>523-231800-
CENTRAL VALLEYS/CENTRAL HIGHLANDS

CITY           SKY/WX    TMP DP  RH WIND       PRES   REMARKS
ALBUQUERQUE    FAIR      51  16  24 W29G39    29.73R
MORIARTY ARPT  FAIR      55  18  23 W28G39    29.70R
CLINES CORNERS FAIR      48  13  24 W41G54    29.67S
BELEN          FAIR      56  13  18 W28G33    29.71F
SOCORRO        FAIR      63  -2   7 SW15G25   29.71S

$$
NMZ524>526-539-540-231800-
SOUTHCENTRAL MOUNTAINS

CITY           SKY/WX    TMP DP  RH WIND       PRES   REMARKS
RUIDOSO        NOT AVBL

$$
NMZ527>531-231800-
NORTHEAST HIGHLANDS/NORTHEAST PLAINS

CITY           SKY/WX    TMP DP  RH WIND       PRES   REMARKS
RATON          FAIR      50  19  29 SW32G49   29.51R
CLAYTON        FAIR      61  28  28 SW33G44   29.47F

$$
NMZ532>537-231800-
EASTCENTRAL PLAINS

CITY           SKY/WX    TMP DP  RH WIND       PRES   REMARKS
TUCUMCARI      FAIR      68  29  23 SW33G41   29.53F
CANNON AFB     FAIR      67  31  26 W32G41    29.61F
CLOVIS AIRPORT FAIR      68  36  30 W33G39    29.61F

$$
NMZ028-029-538-231800-
SOUTHEAST PLAINS

CITY           SKY/WX    TMP DP  RH WIND       PRES   REMARKS
ROSWELL        FAIR      74  23  15 W37G49    29.65
ARTESIA        FAIR      72  32  23 W32G49    29.67S
CARLSBAD       LGT RAIN  76  28  17 SW37G45   29.67S
HOBBS          SUNNY     75  27  16 SW29G39   29.69F


$$



USA.gov is the U.S. government's official web portal to all federal, state and local government web resources and services.